User: anonymous
Location: Unspecified
(0.0000°N, 0.0000°E)
Time: 12:51:16
(UTC+00:00)
Language:

Alouette 1 - Orbit

View from above orbital plane
View from above orbital plane
View from above satellite
View from above satellite

Ground track
Ground track

The orbit data is extracted from the following two-line orbital elements,

1 00424U 62049A   14237.09410031  .00000067  00000-0  67571-4 0  4983
2 00424 080.4678 202.5264 0022585 200.7973 275.6228 13.68953534590931
Epoch (UTC): 25 August 2014 02:15:30
Eccentricity: 0.0022585
inclination: 80.4678°
perigee height: 986 km
apogee height: 1020 km
right ascension of ascending node: 202.5264°
argument of perigee: 200.7973°
revolutions per day: 13.68953534
mean anomaly at epoch: 275.6228°
orbit number at epoch: 59093

The dashed part of the orbit path shows where the satellite is in the earth's shadow,  

DLR